Wind_Speed
6 5 4 4 4 5 7 9 10 11 11 10 9 8 8 8 7 6 6 7 8 8 9 9 10 11 12 12 12 13 12 12 12 12 12 12 12 12 13 13 14 15 15 15 15 15 14 13 11
5 4 3 2 2 4 6 8 10 10 9 8 8 8 7 7 6 6 6 7 8 8 8 8 9 10 11 11 11 12 11 11 11 11 11 10 11 11 11 12 12 13 14 13 12 12 12 11 11
7 5 3 1 1 2 4 6 8 8 7 6 6 6 6 6 7 7 6 6 7 7 8 8 9 9 10 10 11 11 11 10 10 10 10 10 10 10 10 11 12 12 12 12 11 10 10 10 9
10 8 6 4 2 2 3 5 6 6 5 5 5 5 6 6 7 8 8 8 8 8 8 9 10 10 10 10 10 10 10 10 10 10 9 9 10 10 10 11 11 11 11 11 10 9 9 8 8
13 12 9 7 6 4 4 3 4 4 4 4 3 4 6 7 8 9 9 9 9 10 10 10 11 11 11 10 10 10 10 10 10 10 10 10 10 10 11 11 11 11 11 10 9 9 9 8 7
16 15 13 11 10 9 8 4 2 1 2 3 3 4 5 6 8 8 9 9 10 11 11 11 11 11 11 11 11 11 11 11 11 11 10 11 11 11 11 11 11 11 11 11 10 10 9 9 9
18 17 16 15 14 13 10 7 5 3 1 1 3 4 5 6 7 8 9 9 9 11 12 12 12 12 12 12 12 12 12 12 12 12 12 12 12 12 12 12 12 12 12 12 11 11 10 10 10
20 20 19 18 16 15 12 10 7 4 2 2 3 4 6 7 8 8 9 9 10 11 12 13 13 13 14 14 14 13 14 14 13 13 13 13 14 14 14 14 14 14 13 13 13 13 12 12 12
22 22 21 19 17 15 13 11 9 6 3 2 3 4 6 8 9 10 11 12 12 13 13 14 14 14 15 15 16 16 17 16 16 16 16 16 16 16 16 16 17 16 16 16 16 15 15 14 14
24 24 22 21 18 16 14 12 11 8 6 5 5 6 7 9 10 12 14 15 16 16 17 17 17 17 17 18 19 19 20 20 20 19 19 19 19 19 19 19 19 19 19 19 19 19 19 18 17
25 25 25 22 20 17 16 14 12 11 11 11 11 11 11 13 15 16 18 18 19 19 20 20 20 21 21 21 22 23 23 23 23 24 23 23 23 22 22 23 23 23 23 23 23 23 23 22 22
25 26 26 23 21 19 18 16 15 14 15 16 16 16 18 18 19 20 20 21 21 21 22 23 24 25 25 25 26 27 27 28 28 28 28 27 27 27 26 26 27 27 27 27 28 28 28 27 26
25 26 26 24 23 21 21 20 18 18 20 21 21 21 23 24 25 24 24 23 23 24 25 26 27 27 28 29 30 31 31 31 31 31 32 32 32 31 31 30 31 31 32 32 32 33 33 32 31
27 26 26 25 26 25 24 23 22 22 24 25 25 26 27 29 28 27 26 25 25 25 26 27 28 29 30 31 32 33 33 34 34 33 34 35 35 35 35 34 34 34 35 36 36 37 37 36 35
29 27 27 28 28 28 27 26 26 27 28 29 30 30 31 31 30 28 27 26 26 27 27 28 29 29 30 32 33 34 33 33 34 35 36 37 37 37 38 37 37 37 38 39 39 40 40 40 40
32 31 30 31 31 31 30 30 30 31 32 32 33 33 33 32 30 29 28 27 28 28 29 29 29 30 31 32 32 33 33 33 34 35 36 37 38 38 38 39 39 40 41 41 41 42 42 42 42
34 34 34 34 34 34 34 34 33 34 35 35 34 34 33 31 29 28 28 29 30 30 31 31 31 31 31 31 32 32 33 34 34 34 36 37 37 38 40 40 40 41 42 42 42 43 43 43 43
34 35 36 36 36 36 36 36 36 36 36 36 34 32 30 28 27 28 30 31 32 32 31 31 31 32 32 32 32 32 33 33 34 35 35 36 37 38 39 40 41 42 43 43 44 43 43 42 41
32 34 34 35 36 36 36 36 36 36 35 34 32 30 27 27 28 30 31 31 32 33 32 32 32 33 33 33 32 32 32 32 33 34 35 36 37 38 39 40 41 42 42 42 43 43 43 42 40
29 31 32 33 33 33 34 34 35 34 33 32 30 29 29 29 31 32 32 31 32 32 31 32 33 33 32 31 31 31 31 30 31 32 34 35 36 37 38 39 40 42 42 41 41 42 41 40 40
25 27 28 29 30 31 32 32 32 32 32 31 31 31 32 32 33 33 32 31 31 31 33 34 34 33 32 31 31 31 31 31 31 31 33 34 36 37 38 39 40 41 41 41 40 40 39 38 37
21 23 25 27 27 28 29 31 31 31 33 33 33 33 34 33 33 32 31 31 31 32 33 34 34 33 32 31 31 32 32 32 33 33 34 35 36 36 38 38 39 39 40 40 39 39 38 37 35
20 21 23 24 25 26 28 31 31 31 33 33 33 33 32 31 30 29 29 29 30 31 33 34 34 32 31 31 31 31 31 32 33 33 34 35 36 37 38 39 40 40 41 41 40 40 38 37 36
18 19 21 21 21 23 26 27 28 29 29 30 31 29 28 27 27 27 27 27 29 31 33 34 33 32 31 30 30 30 30 31 32 33 35 36 36 37 38 39 40 40 41 42 41 41 40 39 38
15 16 17 18 19 21 22 23 23 24 25 25 25 24 24 24 25 25 26 28 30 32 33 33 32 31 31 31 30 30 31 32 33 34 35 36 36 37 37 38 39 40 41 42 42 41 41 40 39
14 15 15 15 16 17 19 19 20 22 23 23 23 24 24 24 25 26 27 28 30 32 32 32 32 31 32 32 32 32 33 34 35 36 37 37 37 37 37 37 38 39 39 40 41 41 41 40 39
13 13 14 14 14 15 16 18 19 20 21 22 23 24 24 24 25 26 27 28 30 31 32 33 33 33 34 35 35 36 36 36 37 37 38 38 38 37 36 36 36 37 38 38 39 39 40 40 39
12 13 14 15 16 16 16 18 18 19 21 22 23 23 25 26 27 29 30 31 32 33 34 35 36 37 37 38 39 39 39 39 39 39 39 39 39 38 37 36 35 34 34 35 36 37 37 38 38
12 13 14 16 18 19 19 20 20 22 24 25 27 27 29 30 31 32 33 35 36 37 39 40 40 41 42 42 42 42 42 42 42 41 41 40 39 39 38 36 34 33 32 32 33 34 34 35 36
13 14 16 19 20 23 25 27 25 26 28 29 31 31 32 34 35 36 38 39 41 43 44 45 46 46 47 46 46 46 45 45 44 43 42 41 40 39 38 36 33 31 30 29 30 31 31 32 32
Wind_Direction
152 145 120 92 71 69 80 80 80 77 75 81 88 88 80 76 72 64 57 46 38 33 26 19 17 17 18 20 23 24 25 26 26 27 28 28 27 25 24 22 20 19 19 20 23 26 29 32 34
179 170 138 95 93 92 87 85 79 72 65 65 67 66 64 60 51 44 38 33 30 22 14 7 5 5 7 9 11 12 13 14 14 15 14 13 13 12 12 11 9 8 7 9 12 17 22 26 31
205 206 193 215 160 124 109 100 93 84 71 58 48 41 40 37 26 14 10 12 14 7 358 350 349 351 354 356 358 359 0 1 1 1 1 359 358 358 358 358 357 357 358 358 0 5 11 17 24
216 222 220 229 231 195 150 127 118 103 82 56 34 17 14 11 3 354 350 351 350 344 338 335 334 336 339 342 345 348 349 348 346 344 345 344 344 344 345 346 348 349 350 351 351 352 355 1 8
223 228 228 229 242 241 211 162 136 115 84 56 16 358 354 353 347 342 340 341 337 331 328 328 329 329 329 331 333 335 336 336 334 331 330 330 331 332 332 334 337 340 341 343 342 339 339 340 345
228 232 233 233 244 251 250 237 206 112 63 37 9 356 347 348 344 340 339 339 334 330 329 328 328 327 326 326 325 325 325 323 322 320 319 319 320 321 323 323 325 327 329 331 330 327 324 324 324
229 233 234 239 244 251 257 259 266 280 300 330 346 344 334 336 336 335 333 334 335 333 332 330 328 324 322 320 318 317 316 315 314 312 311 310 310 311 312 313 314 314 315 317 318 317 316 315 312
230 235 238 243 248 255 263 267 273 284 286 310 338 336 328 326 324 324 325 327 329 331 330 328 326 323 319 316 312 311 310 309 306 304 303 302 302 301 303 303 303 303 303 304 306 306 306 305 304
228 234 239 243 248 254 264 273 278 275 274 291 322 330 325 318 317 316 316 317 317 318 319 317 316 314 312 308 304 303 302 301 300 298 297 295 294 294 295 295 295 294 294 295 295 296 296 295 294
226 231 236 241 246 252 263 276 279 277 278 283 292 304 314 312 310 310 310 310 309 309 308 307 305 304 304 301 298 296 296 295 293 292 292 290 288 288 288 288 287 287 287 287 287 287 287 287 287
226 228 234 239 245 253 263 276 283 287 286 285 290 295 300 304 304 305 306 306 305 304 302 299 297 294 294 293 292 291 290 289 289 287 287 285 283 282 281 282 282 282 282 282 282 283 282 282 282
229 231 236 240 246 252 262 272 281 288 287 288 292 298 302 304 303 303 304 303 300 298 297 295 293 292 290 289 287 286 285 285 284 283 282 281 279 277 276 277 278 279 279 279 278 278 277 277 277
232 234 240 245 249 253 260 267 275 282 285 290 294 298 300 301 301 303 303 300 296 294 295 294 295 295 292 290 289 287 284 282 282 280 277 277 276 273 273 273 274 275 276 276 276 276 275 273 273
234 235 240 245 249 253 258 263 270 276 281 286 291 293 295 296 298 300 300 298 295 294 294 295 295 295 295 292 289 291 287 283 280 280 277 275 274 270 269 271 272 274 274 274 275 275 274 272 271
237 236 237 241 245 250 255 260 267 272 277 281 285 288 290 292 294 295 298 298 297 295 296 297 298 297 295 294 293 294 293 289 285 280 279 276 273 270 268 269 270 271 272 273 275 275 276 275 272
238 239 239 241 245 250 255 260 265 270 274 278 281 284 286 288 291 294 297 299 299 299 299 299 298 297 298 298 297 297 296 295 292 286 283 280 274 271 270 269 269 270 272 274 275 275 276 276 275
237 240 242 245 249 252 256 261 265 269 272 275 277 280 282 285 290 295 297 299 300 300 299 300 299 299 300 300 300 299 297 296 294 291 287 285 282 277 273 271 270 270 272 273 274 274 275 278 278
237 241 244 247 251 255 258 261 263 266 269 272 274 276 279 285 291 294 296 298 298 298 298 299 301 303 304 304 304 301 299 297 294 292 290 288 285 281 279 277 273 273 273 274 275 275 276 279 279
238 241 245 249 252 255 258 261 263 266 267 269 271 274 279 284 287 290 294 295 296 297 298 299 301 304 307 308 307 305 304 302 298 294 292 289 287 284 282 280 277 276 276 276 276 277 278 279 280
238 241 244 247 249 252 255 258 261 263 265 267 270 274 279 283 286 289 292 293 295 297 298 301 303 306 308 310 311 310 309 306 303 298 294 291 288 286 283 281 279 278 277 277 277 277 277 279 280
238 241 244 246 248 251 254 256 259 261 265 268 272 276 280 283 286 289 290 291 292 295 298 301 304 308 311 313 314 314 312 310 307 304 300 296 292 288 286 284 281 279 278 278 277 278 277 277 278
246 247 249 250 251 251 254 255 257 263 267 271 274 278 281 283 284 284 285 287 290 294 297 300 304 308 311 313 314 315 314 312 310 308 305 301 296 292 288 284 282 280 278 278 277 278 277 278 279
256 258 260 261 260 259 258 260 261 263 266 271 275 278 280 281 280 280 283 285 289 292 295 298 302 305 308 310 311 313 314 314 313 311 308 305 300 295 290 286 282 279 277 277 276 276 276 277 278
266 267 269 270 268 266 265 266 267 268 269 272 274 277 278 278 278 279 281 285 288 289 291 294 297 299 301 304 307 310 313 315 315 315 313 309 305 299 294 289 284 280 277 275 275 275 275 275 276
273 275 276 275 273 270 270 271 271 271 271 271 272 273 273 274 276 278 281 282 283 283 285 287 290 293 296 300 304 309 312 315 316 316 315 314 311 306 299 293 287 282 278 275 274 273 273 273 274
280 283 283 283 278 273 273 273 272 271 271 272 273 273 274 275 276 277 276 275 276 278 280 283 287 291 295 300 305 309 311 313 315 316 316 316 315 312 306 299 292 285 280 276 274 272 271 272 272
285 287 291 290 287 281 277 276 275 278 279 280 280 280 280 280 278 275 275 275 276 278 281 285 290 295 299 303 306 309 311 312 312 314 315 316 315 313 310 305 297 290 283 278 275 272 270 270 270
291 293 293 294 293 290 283 280 280 283 286 287 286 285 284 282 281 280 279 281 282 285 289 293 296 299 301 304 305 307 309 309 310 311 313 314 314 314 311 308 303 296 288 282 277 273 271 269 269
300 298 296 295 295 296 295 291 293 293 293 292 290 287 286 285 285 284 286 289 291 294 296 298 300 301 302 303 304 305 306 307 307 308 309 311 312 312 311 309 305 299 293 286 280 276 273 269 268
303 301 300 298 299 299 301 301 301 298 296 295 292 289 287 287 288 290 291 293 295 297 299 300 301 301 302 302 303 303 303 304 304 305 306 307 308 309 310 309 306 301 297 291 285 280 276 271 267
Height
5917 5918 5918 5919 5919 5918 5916 5916 5915 5915 5916 5917 5917 5918 5919 5919 5920 5922 5920 5918 5917 5917 5916 5916 5915 5914 5913 5912 5911 5910 5909 5909 5908 5908 5907 5907 5906 5906 5905 5905 5904 5903 5902 5901 5900 5899 5898 5897 5896
5918 5919 5920 5921 5920 5919 5919 5918 5917 5917 5918 5918 5918 5918 5919 5919 5920 5920 5919 5918 5917 5917 5916 5916 5915 5914 5913 5912 5911 5910 5909 5909 5908 5908 5907 5907 5906 5906 5905 5905 5904 5903 5902 5901 5900 5899 5899 5897 5896
5919 5920 5921 5921 5921 5921 5920 5920 5919 5919 5919 5919 5919 5919 5920 5920 5920 5920 5919 5918 5918 5917 5916 5915 5914 5913 5912 5911 5911 5910 5909 5909 5908 5908 5907 5907 5906 5906 5905 5904 5903 5903 5902 5901 5900 5899 5898 5897 5896
5919 5921 5921 5922 5921 5921 5921 5921 5920 5920 5920 5920 5920 5920 5920 5920 5920 5919 5919 5918 5917 5917 5916 5915 5914 5913 5912 5911 5910 5909 5909 5908 5908 5907 5906 5906 5905 5905 5904 5903 5902 5901 5901 5900 5899 5898 5898 5897 5896
5918 5919 5920 5920 5920 5921 5921 5921 5921 5921 5921 5921 5921 5920 5920 5920 5919 5919 5918 5918 5917 5916 5916 5914 5913 5912 5911 5910 5909 5908 5908 5907 5906 5906 5905 5905 5904 5903 5903 5902 5901 5900 5899 5898 5898 5897 5896 5896 5895
5917 5918 5919 5919 5919 5920 5920 5921 5920 5921 5921 5921 5921 5920 5920 5920 5919 5918 5918 5917 5917 5916 5915 5914 5912 5911 5910 5909 5908 5907 5906 5906 5905 5904 5904 5903 5902 5902 5901 5900 5899 5899 5898 5897 5896 5895 5895 5894 5893
5915 5916 5916 5917 5918 5919 5920 5920 5920 5920 5920 5921 5920 5920 5919 5919 5919 5918 5917 5917 5916 5915 5914 5913 5911 5910 5909 5908 5907 5906 5905 5904 5904 5903 5902 5901 5901 5900 5899 5898 5898 5897 5896 5895 5894 5894 5893 5892 5892
5912 5914 5914 5915 5916 5917 5919 5919 5920 5920 5919 5920 5919 5919 5919 5918 5917 5917 5916 5915 5914 5913 5912 5911 5910 5909 5908 5907 5906 5905 5904 5903 5902 5901 5900 5900 5899 5898 5897 5896 5895 5895 5894 5893 5892 5891 5891 5890 5889
5909 5911 5911 5913 5914 5916 5917 5918 5918 5918 5918 5918 5918 5918 5918 5917 5916 5915 5915 5914 5913 5912 5910 5909 5908 5907 5906 5905 5904 5903 5902 5901 5900 5899 5898 5897 5896 5895 5894 5893 5892 5892 5891 5890 5889 5888 5888 5887 5886
5906 5908 5909 5910 5912 5914 5915 5915 5916 5916 5916 5917 5917 5917 5916 5915 5915 5914 5913 5912 5910 5909 5908 5907 5905 5904 5903 5902 5901 5900 5899 5898 5897 5896 5895 5894 5893 5892 5891 5890 5889 5888 5887 5886 5885 5885 5884 5883 5882
5903 5904 5906 5908 5910 5911 5912 5912 5913 5913 5913 5914 5915 5915 5914 5914 5913 5912 5911 5909 5908 5906 5905 5903 5902 5901 5899 5898 5897 5897 5896 5895 5894 5893 5891 5890 5889 5887 5886 5885 5884 5883 5882 5881 5881 5880 5879 5878 5877
5901 5901 5903 5906 5907 5909 5909 5909 5910 5910 5911 5911 5912 5912 5912 5911 5910 5909 5908 5906 5904 5902 5900 5898 5897 5896 5894 5893 5892 5891 5891 5889 5888 5887 5886 5885 5883 5882 5881 5879 5878 5878 5877 5876 5875 5874 5873 5872 5871
5898 5899 5901 5903 5905 5906 5906 5907 5907 5907 5907 5907 5908 5908 5908 5907 5906 5905 5904 5902 5900 5898 5895 5893 5892 5890 5889 5888 5887 5885 5884 5883 5882 5881 5880 5878 5877 5875 5874 5873 5872 5871 5870 5869 5868 5867 5866 5865 5864
5895 5897 5899 5900 5901 5902 5903 5904 5904 5904 5904 5904 5904 5904 5904 5902 5901 5900 5898 5896 5894 5892 5890 5888 5886 5884 5883 5881 5880 5878 5876 5875 5874 5873 5871 5870 5869 5868 5866 5866 5865 5864 5862 5861 5860 5858 5857 5856 5855
5890 5893 5895 5896 5896 5897 5899 5900 5901 5901 5900 5900 5900 5900 5899 5897 5896 5894 5892 5890 5888 5886 5884 5882 5880 5878 5877 5875 5873 5871 5869 5867 5866 5865 5863 5861 5860 5859 5858 5857 5857 5855 5854 5852 5851 5850 5849 5847 5846
5885 5888 5890 5890 5891 5893 5896 5896 5897 5896 5896 5896 5895 5894 5893 5891 5890 5888 5886 5884 5882 5880 5878 5876 5875 5873 5871 5869 5867 5864 5862 5860 5859 5857 5855 5852 5851 5850 5849 5848 5848 5846 5845 5843 5842 5841 5839 5838 5837
5879 5881 5883 5885 5886 5888 5890 5891 5892 5891 5891 5890 5890 5889 5887 5885 5883 5882 5880 5878 5876 5874 5872 5870 5868 5867 5864 5862 5860 5857 5855 5853 5851 5849 5847 5845 5843 5841 5840 5839 5838 5837 5836 5835 5833 5832 5831 5830 5828
5873 5875 5877 5880 5881 5882 5884 5884 5885 5885 5885 5884 5884 5883 5881 5880 5878 5876 5874 5872 5870 5868 5866 5864 5862 5860 5857 5855 5853 5851 5849 5846 5844 5841 5839 5837 5835 5833 5831 5830 5830 5828 5827 5826 5824 5823 5821 5821 5820
5868 5870 5872 5874 5875 5876 5877 5878 5878 5878 5878 5878 5877 5876 5876 5875 5873 5871 5869 5866 5864 5861 5859 5857 5855 5853 5851 5848 5846 5843 5841 5839 5836 5834 5832 5829 5827 5825 5823 5821 5820 5819 5817 5816 5815 5813 5812 5812 5811
5864 5866 5867 5868 5869 5870 5870 5871 5872 5872 5872 5871 5871 5871 5870 5869 5868 5865 5863 5861 5858 5856 5853 5850 5848 5846 5844 5841 5838 5836 5833 5831 5829 5826 5824 5821 5819 5816 5814 5812 5810 5809 5808 5807 5806 5804 5804 5804 5802
5860 5862 5862 5863 5864 5864 5865 5866 5866 5865 5865 5865 5865 5865 5864 5863 5862 5860 5857 5855 5852 5849 5847 5844 5841 5839 5836 5834 5831 5828 5826 5823 5821 5818 5815 5812 5810 5807 5805 5803 5801 5799 5798 5797 5796 5795 5794 5794 5793
5858 5858 5859 5859 5860 5860 5861 5861 5861 5860 5860 5859 5859 5859 5858 5857 5855 5853 5851 5849 5846 5843 5840 5837 5835 5832 5830 5827 5824 5821 5819 5816 5813 5810 5807 5804 5801 5798 5795 5793 5791 5789 5788 5787 5786 5785 5785 5785 5784
5855 5855 5855 5855 5856 5856 5856 5856 5857 5856 5855 5854 5853 5853 5852 5851 5849 5847 5845 5843 5840 5837 5834 5831 5828 5826 5824 5821 5819 5815 5812 5809 5805 5802 5798 5795 5791 5788 5785 5783 5781 5779 5778 5776 5776 5775 5775 5775 5775
5853 5853 5852 5852 5852 5852 5851 5851 5851 5850 5850 5849 5848 5847 5846 5845 5843 5841 5839 5837 5834 5831 5828 5825 5823 5820 5818 5816 5813 5810 5806 5802 5798 5794 5790 5786 5782 5778 5775 5772 5770 5768 5767 5765 5765 5765 5765 5765 5765
5851 5850 5849 5848 5848 5847 5846 5846 5847 5845 5844 5844 5843 5842 5841 5840 5838 5836 5833 5831 5828 5824 5822 5819 5817 5815 5812 5809 5806 5803 5799 5795 5791 5787 5782 5778 5774 5769 5765 5761 5759 5757 5755 5754 5753 5753 5754 5754 5754
5848 5848 5847 5846 5845 5844 5843 5843 5843 5840 5839 5838 5838 5837 5835 5834 5832 5830 5827 5825 5821 5818 5816 5813 5811 5808 5805 5801 5798 5794 5791 5787 5783 5778 5774 5770 5765 5760 5756 5752 5748 5746 5744 5742 5742 5742 5742 5743 5743
5845 5845 5844 5843 5842 5841 5840 5840 5838 5837 5836 5835 5833 5832 5830 5828 5826 5823 5820 5817 5814 5811 5809 5806 5803 5799 5796 5792 5788 5785 5781 5778 5774 5770 5765 5761 5756 5752 5747 5742 5738 5735 5733 5731 5731 5731 5731 5731 5732
5843 5842 5841 5840 5838 5837 5837 5835 5835 5834 5832 5830 5827 5825 5823 5820 5818 5815 5812 5809 5806 5803 5800 5796 5793 5789 5786 5782 5779 5775 5772 5768 5765 5761 5757 5752 5748 5743 5738 5733 5729 5726 5723 5721 5720 5719 5719 5720 5720
5841 5840 5838 5837 5835 5833 5831 5833 5830 5828 5826 5823 5821 5818 5815 5812 5809 5806 5803 5799 5796 5792 5789 5786 5782 5779 5776 5772 5769 5766 5762 5759 5755 5751 5747 5743 5739 5734 5730 5725 5721 5717 5714 5711 5710 5709 5709 5709 5709
5838 5836 5835 5833 5831 5828 5826 5827 5824 5821 5818 5815 5812 5809 5806 5803 5799 5796 5792 5789 5785 5782 5778 5775 5772 5768 5765 5762 5758 5755 5752 5748 5745 5741 5738 5734 5730 5726 5721 5716 5712 5709 5706 5703 5701 5700 5699 5699 5699